Location: Krasnoyarskiy Pitomnik
(51.1333°N, 71.6167°E)
Time: 10:13:12
(UTC+00:00)

Cosmos 2181 Rocket - Pass Details

Date: 22 October 2021
Orbit: 952 x 1014 km, 82.9° (Epoch: 06 December)

Event Time Altitude Azimuth Distance (km) Brightness Sun altitude
Exits shadow 23:30:01 - 192° (SSW) 3,221 6.5 -22.6°
Reaches altitude 10° 23:31:25 10° 192° (SSW) 2,693 6.1 -22.4°
Maximum altitude 23:37:35 81° 280° (W) 992 3.9 -21.4°
Drops below altitude 10° 23:43:55 10° 8° (N) 2,752 6.5 -20.4°
Sets 23:46:28 0° 10° (N) 3,714 7.3 -20.0°
